Regional Weather Roundup
Issued by NWS

Home | Current Version | Previous Version | Text Only | Print | Product List | Glossary Off
Versions: 1 2 3 4 5 6 7 8 9 10 11 12 13 14 15 16 17 18 19 20 21 22 23 24 25 26 27 28 29 30 31 32 33 34 35 36 37 38 39 40 41 42 43 44 45 46 47 48 49 50

000
ASUS43 KLMK 251810
RWRKY
KENTUCKY REGIONAL WEATHER ROUNDUP
NATIONAL WEATHER SERVICE LOUISVILLE KY
100 PM EST SUN JAN 25 2015

NOTE "FAIR" INDICATES FEW OR NO CLOUDS BELOW 12,000 FEET
WITH NO SIGNIFICANT WEATHER AND/OR OBSTRUCTIONS TO VISIBILITY.

KYZ001>023-026-027-061>063-070>075-251900-
WESTERN AND SOUTH CENTRAL KENTUCKY

CITY           SKY/WX    TMP DP  RH WIND       PRES   REMARKS
PADUCAH        LGT RAIN  42  39  89 SW10      29.62F FOG
HENDERSON      CLOUDY    43  37  81 S7        29.62S
OWENSBORO      LGT RAIN  43  39  85 SE10      29.63F
HOPKINSVILLE   PTSUNNY   50  35  55 SW13      29.64F
BOWLING GREEN  CLOUDY    49  34  56 S12       29.67F
GLASGOW        CLOUDY    49  34  55 S10       29.67F
$$

KYZ024-025-028>034-038-045-046-053-251900-
NORTH CENTRAL KENTUCKY

CITY           SKY/WX    TMP DP  RH WIND       PRES   REMARKS
LOUISVILLE/SDF LGT RAIN  44  35  70 S8        29.67F
LOUISVILLE/LOU LGT RAIN  43  34  70 S6        29.68F
FORT KNOX      MIX PCPN  43  36  75 E3        29.64F
$$

KYZ035>037-039>044-047>052-055>060-089>105-251900-
NORTHEAST KENTUCKY

CITY           SKY/WX    TMP DP  RH WIND       PRES   REMARKS
LEXINGTON      CLOUDY    39  32  76 S10       29.69F WCI  32
COVINGTON      LGT RAIN  41  34  76 SE7       29.69F
FRANKFORT      CLOUDY    42  32  67 S8        29.68F
$$

KYZ054-064>069-076>088-106>120-251900-
SOUTHEAST KENTUCKY

CITY           SKY/WX    TMP DP  RH WIND       PRES   REMARKS
JACKSON        CLOUDY    46  33  60 VRB3      29.72F
LONDON         PTSUNNY   50  30  46 S13       29.72F
SOMERSET       CLOUDY    46  32  57 S9        29.72F
MIDDLESBORO    MOSUNNY   48  33  54 S5G17     29.77F
MONTICELLO     MOCLDY    53  35  50 S12       29.73F
$$




USA.gov is the U.S. government's official web portal to all federal, state and local government web resources and services.